TimeEDT,TemperatureF,Dew PointF,Humidity,Sea Level PressureIn,VisibilityMPH,Wind Direction,Wind SpeedMPH,Gust SpeedMPH,PrecipitationIn,Events,Conditions,WindDirDegrees,DateUTC
12:56 AM,52.0,30.9,45,30.29,10.0,SSE,5.8,-,N/A,,Overcast,160,2013-04-30 04:56:00
1:56 AM,50.0,30.9,48,30.29,10.0,South,3.5,-,N/A,,Mostly Cloudy,180,2013-04-30 05:56:00
2:56 AM,48.0,32.0,54,30.29,10.0,Calm,Calm,-,N/A,,Clear,0,2013-04-30 06:56:00
3:56 AM,45.0,34.0,65,30.30,10.0,Calm,Calm,-,N/A,,Clear,0,2013-04-30 07:56:00
4:56 AM,42.1,33.1,70,30.31,10.0,Calm,Calm,-,N/A,,Clear,0,2013-04-30 08:56:00
5:56 AM,42.1,34.0,73,30.32,10.0,Calm,Calm,-,N/A,,Clear,0,2013-04-30 09:56:00
6:56 AM,45.0,37.9,76,30.34,10.0,Calm,Calm,-,N/A,,Clear,0,2013-04-30 10:56:00
7:56 AM,51.1,37.9,61,30.36,10.0,Calm,Calm,-,N/A,,Clear,0,2013-04-30 11:56:00
8:56 AM,55.0,26.1,33,30.36,10.0,SW,4.6,-,N/A,,Clear,230,2013-04-30 12:56:00
9:56 AM,59.0,19.9,22,30.36,10.0,Calm,Calm,-,N/A,,Clear,0,2013-04-30 13:56:00
10:56 AM,62.1,24.1,23,30.35,10.0,South,5.8,-,N/A,,Clear,190,2013-04-30 14:56:00
11:56 AM,64.9,28.0,25,30.35,10.0,East,6.9,-,N/A,,Clear,100,2013-04-30 15:56:00
12:56 PM,64.9,25.0,22,30.33,10.0,East,8.1,-,N/A,,Clear,100,2013-04-30 16:56:00
1:56 PM,66.9,30.0,25,30.33,10.0,East,8.1,-,N/A,,Clear,80,2013-04-30 17:56:00
2:56 PM,66.9,27.0,22,30.33,10.0,East,12.7,16.1,N/A,,Clear,100,2013-04-30 18:56:00
3:56 PM,64.9,21.9,19,30.32,10.0,SE,10.4,-,N/A,,Clear,140,2013-04-30 19:56:00
4:56 PM,64.0,21.9,20,30.33,10.0,East,11.5,-,N/A,,Clear,80,2013-04-30 20:56:00
5:56 PM,62.1,24.1,23,30.35,10.0,East,11.5,-,N/A,,Clear,90,2013-04-30 21:56:00
6:56 PM,57.9,21.0,24,30.35,10.0,ESE,8.1,-,N/A,,Clear,120,2013-04-30 22:56:00
7:56 PM,55.0,27.0,34,30.37,10.0,ESE,6.9,-,N/A,,Partly Cloudy,110,2013-04-30 23:56:00
8:56 PM,51.1,30.9,46,30.38,10.0,East,8.1,-,N/A,,Clear,100,2013-05-01 00:56:00
9:56 PM,50.0,34.0,54,30.38,10.0,ESE,3.5,-,N/A,,Clear,110,2013-05-01 01:56:00
10:56 PM,46.0,34.0,63,30.39,10.0,Calm,Calm,-,N/A,,Clear,0,2013-05-01 02:56:00
11:56 PM,43.0,34.0,71,30.41,10.0,ENE,3.5,-,N/A,,Clear,70,2013-05-01 03:56:00